Winnipeg 'A' Cs, Canada

6:52 AM CDT on July 28, 2016 (GMT -0500)
Winnipeg International

Weather History for CYWG - November, 2012

Change the Weather History Date:

Saturday, November 10, 2012

  Actual Average Record
Temperature  
Mean Temperature 23 °F -  
Max Temperature 24 °F 32 °F 50 °F (2010)
Min Temperature 22 °F 17 °F -4 °F (1996)
Degree Days  
Heating Degree Days 42    
Moisture  
Dew Point 21 °F    
Average Humidity 87    
Maximum Humidity 96    
Minimum Humidity 55    
Precipitation  
Precipitation 0.39 in - - ()
Sea Level Pressure  
Sea Level Pressure 29.94 in    
Wind  
Wind Speed 14 mph ()    
Max Wind Speed 22 mph    
Max Gust Speed 24 mph    
Visibility 3.1 miles    
Events Snow    
Averages and records for this station are not official NWS values.
T = Trace of Precipitation, MM = Missing Value Source: Averaged Metar Reports

Daily Weather History Graph

Daily Weather History Graph

Search for Another Location

Airport or City:

Trip Planner

Search our weather history database for the weather conditions in past years. The results will help you decide how hot, cold, wet, or windy it might be!

Date:

Astronomy

Nov. 10, 2012 Rise Set
Actual Time 7:34 AM CST 4:51 PM CST
Civil Twilight 6:59 AM CST 5:25 PM CST
Nautical Twilight 6:20 AM CST 6:04 PM CST
Astronomical Twilight 5:42 AM CST 6:42 PM CST
Moon 3:21 AM CST (11/10) 2:54 PM CST (11/10)
Length of Visible Light 10h 26m
Length of Day
9h 16m
Waning Crescent, 14% of the Moon is Illuminated
Nov 10
Waning Crescent
Nov 13
New
Nov 20
First Quarter
Nov 28
Full
Dec 6
Last Quarter

Hourly Weather History & Observations

Time (CST) Temp. Windchill Dew Point Humidity Pressure Visibility Wind Dir Wind Speed Gust Speed Precip Events Conditions
12:00 AM 24 °F - 14 °F 55% 30.18 in 9 mi Calm Calm - -   Overcast
12:00 AM 24.8 °F 11.5 °F 14.0 °F 64% 30.18 in 15.0 mi NE 17.3 mph - N/A   Overcast
1:00 AM 24.8 °F 11.9 °F 15.8 °F 69% 30.17 in 15.0 mi ENE 16.1 mph - N/A   Overcast
2:00 AM 24.8 °F 11.5 °F 15.8 °F 69% 30.16 in 9.0 mi NE 17.3 mph - N/A Snow Light Snow
3:00 AM 24.8 °F 12.4 °F 17.6 °F 74% 30.13 in 9.0 mi NE 15.0 mph - N/A Snow Light Snow
4:00 AM 24.8 °F 10.0 °F 17.6 °F 74% 30.08 in 4.0 mi NE 21.9 mph - N/A Snow Light Snow
4:15 AM 23.0 °F 8.3 °F - N/A% - 1.8 mi ENE 19.6 mph - N/A Snow Light Snow
4:32 AM 23.0 °F 9.6 °F - N/A% - 1.0 mi ENE 16.1 mph - N/A Snow Light Snow
4:43 AM 23.0 °F 10.1 °F - N/A% - 0.8 mi ENE 15.0 mph - N/A Snow Light Snow
5:00 AM 23.0 °F 10.1 °F 21.2 °F 93% 30.06 in 1.0 mi ENE 15.0 mph - N/A Snow Light Snow
6:00 AM 23 °F - 21 °F 88% 30.04 in 1 mi Calm Calm - -   Unknown Precipitation
6:00 AM 23.0 °F 9.6 °F 21.2 °F 93% 30.04 in 1.0 mi ENE 16.1 mph - N/A Snow Light Snow
7:00 AM 23.0 °F 10.1 °F 21.2 °F 93% 30.02 in 1.0 mi ENE 15.0 mph - N/A Snow Light Snow
8:00 AM 23.0 °F 10.6 °F 21.2 °F 93% 30.01 in 1.5 mi ENE 13.8 mph - N/A Snow Light Snow
8:16 AM 23.0 °F 9.6 °F - N/A% - 3.0 mi ENE 16.1 mph - N/A Snow Light Snow
8:40 AM 23.0 °F 11.1 °F - N/A% - 3.0 mi ENE 12.7 mph - N/A Snow Light Snow
9:00 AM 23.0 °F 9.6 °F 21.2 °F 93% 29.98 in 2.5 mi ENE 16.1 mph - N/A Snow Light Snow
9:08 AM 23.0 °F 9.6 °F - N/A% - 1.5 mi ENE 16.1 mph - N/A Snow Light Snow
10:00 AM 23.0 °F 9.2 °F 21.2 °F 93% 29.96 in 2.0 mi NE 17.3 mph - N/A Snow Light Snow
10:18 AM 23.0 °F 10.6 °F - N/A% - 1.0 mi ENE 13.8 mph 23.0 mph N/A Snow Light Snow
10:29 AM 23.0 °F 9.6 °F - N/A% - 1.5 mi ENE 16.1 mph - N/A Snow Light Snow
10:52 AM 23.0 °F 10.6 °F - N/A% - 3.0 mi NE 13.8 mph 20.7 mph N/A Snow Light Snow
11:00 AM 23.0 °F 11.7 °F 21.2 °F 93% 29.96 in 3.0 mi NE 11.5 mph 18.4 mph N/A Snow Light Snow Grains
11:26 AM 23.0 °F 11.1 °F - N/A% - 2.0 mi NE 12.7 mph - N/A Snow Light Snow Grains
11:50 AM 23.0 °F 10.6 °F - N/A% - 0.5 mi NE 13.8 mph 20.7 mph N/A Snow Light Snow Showers
12:00 PM 23 °F - 21 °F 91% 29.91 in 1 mi Calm Calm - -   Unknown Precipitation
12:00 PM 23.0 °F 9.6 °F 21.2 °F 93% 29.91 in 1.0 mi ENE 16.1 mph - N/A Snow Light Snow
12:32 PM 23.0 °F 9.6 °F - N/A% - 1.5 mi NE 16.1 mph - N/A Snow Light Snow
1:00 PM 23.0 °F 9.6 °F 21.2 °F 93% 29.88 in 3.0 mi NE 16.1 mph - N/A Snow Light Snow
1:17 PM 24.8 °F 11.9 °F - N/A% - 10.0 mi NE 16.1 mph - N/A Snow Light Snow
2:00 PM 24.8 °F 12.4 °F 21.2 °F 86% 29.85 in 6.0 mi NE 15.0 mph 24.2 mph N/A Snow Light Snow
3:00 PM 24.8 °F 14.0 °F 23.0 °F 93% 29.83 in 5.0 mi NE 11.5 mph 18.4 mph N/A Snow Light Snow
3:38 PM 24.8 °F 12.9 °F - N/A% - 5.0 mi NE 13.8 mph - N/A   Light Freezing Drizzle
4:00 PM 24.8 °F 13.4 °F 23.0 °F 93% 29.81 in 3.0 mi NE 12.7 mph - N/A   Light Small Hail Showers
4:18 PM 24.8 °F 12.9 °F - N/A% - 3.0 mi NE 13.8 mph - N/A Snow Light Snow
4:48 PM 24.8 °F 14.0 °F - N/A% - 2.0 mi NE 11.5 mph - N/A Snow Light Snow
5:00 PM 24.8 °F 14.0 °F 23.0 °F 93% 29.81 in 1.0 mi NE 11.5 mph - N/A Snow Light Snow
5:33 PM 24.8 °F 13.4 °F - N/A% - 0.8 mi NNE 12.7 mph - N/A Snow Light Snow
6:00 PM 24 °F - 23 °F 96% 29.80 in 0 mi Calm Calm - -   Unknown Precipitation
6:00 PM 24.8 °F 14.0 °F 23.0 °F 93% 29.80 in 0.8 mi NNE 11.5 mph - N/A Snow Light Snow
6:25 PM 24.8 °F 13.4 °F - N/A% - 1.2 mi NNE 12.7 mph - N/A Snow Light Snow
7:00 PM 24.8 °F 13.4 °F 23.0 °F 93% 29.78 in 1.5 mi NNE 12.7 mph 19.6 mph N/A Snow Light Snow
7:29 PM 24.8 °F 12.4 °F - N/A% - 4.0 mi NNE 15.0 mph - N/A Snow Light Snow
8:00 PM 24.8 °F 12.9 °F 23.0 °F 93% 29.75 in 10.0 mi NNE 13.8 mph - N/A Snow Light Snow
8:38 PM 24.8 °F 12.9 °F - N/A% - 2.0 mi NNE 13.8 mph - N/A Snow Light Snow
9:00 PM 24.8 °F 12.4 °F 23.0 °F 93% 29.75 in 1.0 mi NNE 15.0 mph - N/A Snow Light Snow
9:29 PM 24.8 °F 12.4 °F - N/A% - 0.5 mi NNE 15.0 mph - N/A Snow Snow
9:35 PM 23.0 °F 10.1 °F - N/A% - 0.4 mi NNE 15.0 mph - N/A Snow Snow
10:00 PM 24.8 °F 11.1 °F 23.0 °F 93% 29.71 in 0.2 mi NNE 18.4 mph - N/A Snow Heavy Snow
10:38 PM 23.0 °F 8.7 °F - N/A% - 0.8 mi NNE 18.4 mph - N/A Snow Light Snow
10:46 PM 24.8 °F 12.4 °F - N/A% - 1.8 mi NNE 15.0 mph - N/A Snow Light Snow
11:00 PM 24.8 °F 11.1 °F 23.0 °F 93% 29.66 in 1.5 mi NNE 18.4 mph - N/A Snow Light Snow
11:27 PM 23.0 °F 9.6 °F - N/A% - 1.8 mi NNE 16.1 mph - N/A Snow Light Snow
11:38 PM 24.8 °F 11.9 °F - N/A% - 4.0 mi NNE 16.1 mph - N/A Snow Light Snow